Regional Weather Roundup
Issued by NWS Lake Charles, LA

Home | Current Version | Previous Version | Text Only | Print | Product List | Glossary On
Versions: 1 2 3 4 5 6 7 8 9 10 11 12 13 14 15 16 17 18 19 20 21 22 23 24 25 26 27 28 29 30 31 32 33 34 35 36 37 38 39 40 41 42 43 44 45 46 47 48 49 50
000
ASUS44 KLCH 040310
RWRLCH
RWRLCH
REGIONAL WEATHER ROUNDUP
NATIONAL WEATHER SERVICE LAKE CHARLES LA
1000 PM CDT MON AUG 03 2015

Note: "fair" indicates few or no clouds below 12,000 feet with no
significant weather and/or obstructions to visibility.


ACROSS SOUTHEAST TEXAS

CITY           SKY/WX    TMP DP  RH WIND       PRES   REMARKS
BEAUMONT       CLEAR     79  74  84 SW6       29.88R
BEAUMONT CITY    N/A     80  73  80 SW5       29.89S
ORANGE         CLEAR     82  69  64 CALM      29.90R
JASPER         CLEAR     84  71  64 SW5       29.92R
$$

ACROSS CENTRAL LOUISIANA

CITY           SKY/WX    TMP DP  RH WIND       PRES   REMARKS
LEESVILLE      CLEAR     82  69  66 E3        29.88R
FULLERTON        N/A     78  68  71 CALM      29.87R
ALEXANDRIA INT CLEAR     80  72  76 CALM      29.88R
ESLER FIELD    CLEAR     80  71  74 CALM      29.90R
DERIDDER         N/A     81  70  68 CALM      29.91R
OAKDALE          N/A     78  73  86 CALM      29.90R
OPELOUSAS        N/A     81  76  83 S5        29.90R
$$

ACROSS SOUTHWEST AND SOUTH CENTRAL LOUISIANA

CITY           SKY/WX    TMP DP  RH WIND       PRES   REMARKS
SULPHUR        CLEAR     82  74  76 SW6       29.90R
LAKE CHARLES   CLEAR     83  74  74 SW5       29.89R
CHENNAULT INT  CLEAR     82  73  74 S5        29.90
CAMERON PHI    CLEAR     84  75  74 W5        29.92R
DEQUINCY         N/A     80  72  77 CALM      29.89R
JENNINGS         N/A     82  76  82 S3        29.90R
LAFAYETTE      CLEAR     82  76  81 CALM      29.91R
NEW IBERIA     CLEAR     80  75  84 S5        29.92R
ABBEVILLE        N/A     78  76  94 CALM      29.91R
PATTERSON      CLEAR     79  73  83 E3        29.92R
SALT POINT       N/A     80  77  90 MISG      29.89R
$$

SELECTED SITES ACROSS THE REGION

CITY           SKY/WX    TMP DP  RH WIND       PRES   REMARKS
HOUSTON BUSH   PTCLDY    85  72  65 S5        29.89R
HOUSTON HOBBY  PTCLDY    83  74  74 S6        29.89R
GALVESTON      CLEAR     85  76  74 SW8       29.90S
COLLEGE STAT   PTCLDY    86  72  62 S10       29.90R
CONROE         CLEAR     85  68  56 S5        29.90R
HUNTSVILLE     CLEAR     88  64  44 S5        29.89R
LUFKIN         CLEAR     80  68  66 CALM      29.88R
SHREVEPORT     CLEAR     87  66  49 E5        29.89R
MONROE         CLEAR     80  70  71 E5        29.91R
NATCHEZ MS     CLEAR     81  72  74 CALM      29.92R
BATON ROUGE    CLEAR     83  74  74 S7        29.91R
N.O. INTL ARPT PTCLDY    80  71  74 S6        29.92R
SLIDELL        CLEAR     78  76  93 CALM      29.91R
$$

MARINE REPORTS

STATION/POSITION TIME  TEMP    WIND        PRES    VSBY  WAVE
                       AIR SEA DIR/SP/G                  HT/PER
                 (UTC) (F)     (DEG/KT/KT) (MB)    (MI)  (FT/S)
BUOY 30 S HIGH I 0250   86 87  210/ 10/ 12 1011.8R         2/ 4
SEA RIM ST PARK  0200   85     220/ 10/ 13 1012.4R
PORT ARTHUR      0200      90  230/  9/ 11 1011.9R
SABINE PASS N    0200   84 89  220/  4/  6 1012.1R
TEXAS POINT      NOT AVBL
CALCASIEU PASS   0200   86 89  240/  8/ 11 1011.0R
LK CHARLES BEACH 0200   87 89                N/A
MARSH ISLAND     0200   83     100/  6/ 10   N/A           0
FRESH WATER LOCK 0200   83 89   60/  4/  5 1011.9R
AMERADA PASS     0200   82 87  110/  3/  5 1011.9R
$$


USA.gov is the U.S. government's official web portal to all federal, state and local government web resources and services.